This is the latest recevied weather packets stored in our database for station/object KE4LOJ. If no packets are shown the sender has not sent any weather packets the latest 10 day(s).
| Time | Temp. | Humidity | Pressure | Rain* | Wind** | Luminosity | Snow |
|---|---|---|---|---|---|---|---|
| 1777296436 | 24.44° C | 83% | 1016.7 hPa | 0 mm | - | 92 W/m² | - |
| 1777296132 | 24.44° C | 84% | 1016.4 hPa | 0 mm | - | 98 W/m² | - |
| 1777295829 | 24.44° C | 85% | 1016.5 hPa | 0 mm | - | 88 W/m² | - |
| 1777295527 | 23.89° C | 86% | 1016.3 hPa | 0 mm | - | 110 W/m² | - |
| 1777295224 | 23.89° C | 86% | 1016.4 hPa | 0 mm | - | 111 W/m² | - |
| 1777294922 | 23.89° C | 87% | 1016.4 hPa | 0 mm | - | 72 W/m² | - |
| 1777294622 | 23.89° C | 88% | 1016.4 hPa | 0 mm | - | 68 W/m² | - |
| 1777294318 | 23.89° C | 89% | 1016.4 hPa | 0 mm | - | 52 W/m² | - |
| 1777294015 | 23.33° C | 90% | 1016.4 hPa | 0 mm | - | 49 W/m² | - |
| 1777293711 | 23.33° C | 90% | 1016.3 hPa | 0 mm | - | 48 W/m² | - |
| 1777293406 | 23.33° C | 91% | 1016.3 hPa | 0 mm | - | 46 W/m² | - |
| 1777293103 | 22.78° C | 92% | 1016.2 hPa | 0 mm | - | 44 W/m² | - |
| 1777292801 | 22.78° C | 92% | 1016.3 hPa | 0 mm | - | 43 W/m² | - |
| 1777292498 | 22.78° C | 93% | 1016 hPa | 0 mm | - | 42 W/m² | - |
| 1777292194 | 22.78° C | 94% | 1016.1 hPa | 0 mm | - | 40 W/m² | - |
| 1777291891 | 22.22° C | 96% | 1016.1 hPa | 0 mm | - | 39 W/m² | - |
| 1777291587 | 22.22° C | 97% | 1015.8 hPa | 0 mm | - | 37 W/m² | - |
| 1777291284 | 22.22° C | 98% | 1015.7 hPa | 0 mm | - | 35 W/m² | - |
| 1777290981 | 21.67° C | 99% | 1015.7 hPa | 0 mm | - | 34 W/m² | - |
| 1777290678 | 21.67° C | 99% | 1015.7 hPa | 0 mm | - | 36 W/m² | - |
| 1777290375 | 21.67° C | 99% | 1015.6 hPa | 0 mm | - | 33 W/m² | - |
| 1777290070 | 21.11° C | 99% | 1015.6 hPa | 0 mm | - | 31 W/m² | - |
| 1777289767 | 21.11° C | 99% | 1015.7 hPa | 0 mm | - | 26 W/m² | - |
| 1777289463 | 21.11° C | 99% | 1015.5 hPa | 0 mm | - | 23 W/m² | - |
| 1777289160 | 20.56° C | 99% | 1015.4 hPa | 0 mm | - | 21 W/m² | - |
* Rain latest hour (hover to see other rain measurements)
** Current wind speed in m/s (hover to see current wind gust speed)